Regional Weather Roundup
Issued by NWS Sioux Falls, SD

Home | Current Version | Previous Version | Text Only | Print | Product List | Glossary Off
Versions: 1 2 3 4 5 6 7 8 9 10 11 12 13 14 15 16 17 18 19 20 21 22 23 24 25 26 27 28 29 30 31 32 33 34 35 36 37 38 39 40 41 42 43 44 45 46 47 48 49 50

000
ASUS43 KFSD 301302
RWRFSD

WEATHER ROUNDUP FOR SE SOUTH DAKOTA/SW MINNESOTA/NW IOWA
NATIONAL WEATHER SERVICE SIOUX FALLS SD
800 AM CDT MON MAY 30 2016

NOTE: "FAIR" INDICATES FEW OR NO CLOUDS BELOW 12,000 FEET WITH NO
SIGNIFICANT WEATHER AND OR OBSTRUCTIONS TO VISIBILITY.


SDZ038>040-050-052>070-301400-
SOUTHEAST SOUTH DAKOTA

CITY           SKY/WX    TMP DP  RH WIND       PRES   REMARKS
BROOKINGS      CLOUDY    60  56  86 SE3       29.97R
CHAMBERLAIN    NOT AVBL
HURON          LGT RAIN  62  57  83 MISG      29.93R
MADISON        FAIR      61  61 100 S12       29.99R
MITCHELL       MOSUNNY   63  59  87 SE16      29.98R
SIOUX FALLS    CLOUDY    66  53  63 SE8       29.99S
WINNER         FAIR      63  55  75 SE12      29.96F
YANKTON        MOSUNNY   64  55  72 E9        29.98F
$$

MNZ071-072-080-081-089-090-097-098-301400-
SOUTHWEST MINNESOTA

CITY           SKY/WX    TMP DP  RH WIND       PRES   REMARKS
FAIRMONT       CLOUDY    63  52  67 NE7       29.99F
JACKSON        CLOUDY    63  54  72 S8        30.02R
LUVERNE        MOSUNNY   61  54  77 S7        30.01R
MARSHALL       CLOUDY    64  55  72 SE6       29.97F
MONTEVIDEO     PTSUNNY   64  55  72 CALM      30.01S
PIPESTONE      MOSUNNY   63  55  77 SE9       29.99R
REDWOOD FALLS  MOSUNNY   64  56  75 E3        29.99F
TRACY          MOSUNNY   65  56  70 S6        30.00F
WINDOM         CLOUDY    66  54  63 CALM      30.00F
WORTHINGTON      N/A     61  57  87 SE7       30.02R
$$

IAZ001>003-012>014-020>022-031-032-NEZ013-014-SDZ071-301400-
NORTHWEST IOWA

CITY           SKY/WX    TMP DP  RH WIND       PRES   REMARKS
ESTHERVILLE    MOSUNNY   60  55  83 S9        30.02R
SIOUX CITY     CLOUDY    68  57  68 E8        30.00R
SPENCER        MOSUNNY   63  56  78 NE6       30.03R
STORM LAKE     MOSUNNY   66  54  63 E13       30.04R
$$

ABBREVIATIONS USED IN REMARKS
   TC - TEMPERATURE IN CELSIUS
  WCI - WIND CHILL INDEX
   HX - HEAT INDEX
  VSB - VISIBILITY




USA.gov is the U.S. government's official web portal to all federal, state and local government web resources and services.